Location: Tabor
(49.4170°N, 14.6670°E)
Time: 10:59:51
(UTC+02:00)

ISS - Pass Details

Date: 19 May 2021
Orbit: 417 x 422 km, 51.6° (Epoch: 13 June)

Event Time Altitude Azimuth Distance (km) Brightness Sun altitude
Rises 02:07:00 0° 289° (WNW) 2,371 0.1 -19.1°
Reaches altitude 10° 02:09:09 10° 282° (WNW) 1,505 -1.0 -19.0°
Enters shadow 02:09:22 11° 281° (WNW) 1,418 -1.2 -19.0°
